Terug naar catalogus

ONEWEB-0572

ActiefCommunicatiePO
NORAD 55151·PAYLOAD·🇬🇧 United Kingdom

Gelanceerd Jan 10, 2023 vanaf Cape Canaveral Space Force Station

Loading…

Volgende Passages (komende 24 uur)

TLE

VersSource: CelesTrak SupGP

Epoch: Sep 14, 2026, 07:19 UTC

1 55151C 23004M   26257.30503889 -.00003082  00000+0 -79470-2 0  2574
2 55151  87.9206 348.1676 0001728 103.7737 333.7635 13.17654900    19

Volg ONEWEB-0572 in realtime met AllMySat

Download on the App Store